Orbital Elements at Epoch 2459000.5 (2020-May-31.0) TDB
Reference: JPL 33 (heliocentric ecliptic J2000)
Element | Value | Uncertainty (1-sigma) | Units |
e | .1698046635473455 | 2.9067e-08 | |
a | 2.299948473990118 | 7.4493e-09 | au |
q | 1.909406497187995 | 6.8348e-08 | au |
i | 7.272567872769311 | 4.0833e-06 | deg |
node | 314.0800989163908 | 2.5311e-05 | deg |
peri | 291.1758518691242 | 2.7976e-05 | deg |
M | 298.9637613910272 | 1.2643e-05 | deg |
tp | 2459216.503529760500 (2021-Jan-02.00352976) | 4.5036e-05 | TDB |
period | 1274.018066741559 3.49 | 6.1896e-06 1.695e-08 | d yr |
n | .2825705611229984 | 1.3728e-09 | deg/d |
Q | 2.690490450792241 | 8.7142e-09 | au |
|
| | Orbit Determination Parameters
Additional Information
|